This is the latest recevied weather packets stored in our database for station/object KD9ZDW. If no packets are shown the sender has not sent any weather packets the latest 1 day(s).
| Time | Temp. | Humidity | Pressure | Rain* | Wind** | Luminosity | Snow |
|---|---|---|---|---|---|---|---|
| 1778029743 | 6.67° C | 92% | 1011 hPa | 0 mm | 0 m/s | 0 W/m² | - |
| 1778029442 | 6.67° C | 93% | 1010.9 hPa | 0 mm | 1.79 m/s, 352° | 0 W/m² | - |
| 1778029138 | 7.22° C | 94% | 1010.9 hPa | 0 mm | 1.79 m/s, 339° | 0 W/m² | - |
| 1778028835 | 7.22° C | 95% | 1010.9 hPa | 0 mm | 1.34 m/s, 319° | 0 W/m² | - |
| 1778028531 | 7.78° C | 95% | 1011 hPa | 1.78 mm | 0.89 m/s, 41° | 0 W/m² | - |
| 1778028229 | 8.33° C | 95% | 1011 hPa | 1.78 mm | 1.34 m/s, 28° | 0 W/m² | - |
| 1778027925 | 8.89° C | 95% | 1011.1 hPa | 1.27 mm | 0.89 m/s, 25° | 0 W/m² | - |
| 1778027621 | 8.89° C | 95% | 1011.1 hPa | 1.27 mm | 0.45 m/s, 243° | 1 W/m² | - |
| 1778027318 | 8.89° C | 95% | 1011 hPa | 0 mm | 0.45 m/s, 300° | 1 W/m² | - |
| 1778027014 | 8.89° C | 95% | 1010.8 hPa | 0 mm | 0 m/s | 2 W/m² | - |
| 1778026709 | 8.89° C | 95% | 1011 hPa | 1.78 mm | 0 m/s | 3 W/m² | - |
| 1778026407 | 8.89° C | 95% | 1011 hPa | 1.78 mm | 0 m/s | 3 W/m² | - |
| 1778026104 | 8.89° C | 95% | 1011.1 hPa | 0 mm | 0 m/s | 4 W/m² | - |
| 1778025802 | 8.89° C | 94% | 1010.8 hPa | 1.27 mm | 0 m/s | 7 W/m² | - |
| 1778025498 | 8.89° C | 94% | 1010.8 hPa | 3.05 mm | 0 m/s | 9 W/m² | - |
| 1778025196 | 8.89° C | 94% | 1010.9 hPa | 1.78 mm | 0 m/s | 8 W/m² | - |
| 1778024893 | 8.89° C | 94% | 1010.9 hPa | 1.78 mm | 0 m/s | 10 W/m² | - |
| 1778024590 | 8.89° C | 94% | 1010.8 hPa | 1.78 mm | 0 m/s | 11 W/m² | - |
| 1778024287 | 8.89° C | 94% | 1011 hPa | 0 mm | 0.45 m/s, 292° | 10 W/m² | - |
| 1778023985 | 8.89° C | 94% | 1010.8 hPa | 1.27 mm | 0 m/s | 12 W/m² | - |
| 1778023682 | 8.89° C | 94% | 1010.5 hPa | 1.27 mm | 0 m/s | 15 W/m² | - |
| 1778023379 | 8.89° C | 94% | 1010.5 hPa | 0 mm | 0 m/s | 15 W/m² | - |
| 1778023075 | 8.89° C | 94% | 1010.7 hPa | 0 mm | 0 m/s | 15 W/m² | - |
| 1778022774 | 8.89° C | 94% | 1010.7 hPa | 1.78 mm | 0 m/s | 23 W/m² | - |
| 1778022472 | 8.89° C | 94% | 1010.8 hPa | 1.78 mm | 0 m/s | 17 W/m² | - |
* Rain latest hour (hover to see other rain measurements)
** Current wind speed in m/s (hover to see current wind gust speed)